Ladysmith, WI

4:09 AM CST on December 16, 2017 (GMT -0600)
Rusk County

Weather History for KRCX - February, 2014

Change the Weather History Date:

Thursday, February 20, 2014

  Actual Average (KPBH) Record (KPBH)
Temperature  
Mean Temperature 33 °F -  
Max Temperature 38 °F 27 °F 49 °F (2017)
Min Temperature 28 °F 9 °F -16 °F (2008)
Degree Days  
Heating Degree Days 32    
Moisture  
Dew Point 28 °F    
Average Humidity 82    
Maximum Humidity 98    
Minimum Humidity 63    
Precipitation  
Precipitation 0.39 in - - ()
Sea Level Pressure  
Sea Level Pressure 29.48 in    
Wind  
Wind Speed 7 mph (East)    
Max Wind Speed 16 mph    
Max Gust Speed 26 mph    
Visibility 8 miles    
Events Rain , Snow    
Averages and records for this station are not official NWS values.
T = Trace of Precipitation, MM = Missing Value Source: NWS Daily Summary

Daily Weather History Graph

Daily Weather History Graph

Search for Another Location

Airport or City:

Trip Planner

Search our weather history database for the weather conditions in past years. The results will help you decide how hot, cold, wet, or windy it might be!

Date:

Astronomy

Feb. 20, 2014 Rise Set
Actual Time 6:57 AM CST 5:38 PM CST
Civil Twilight 6:27 AM CST 6:08 PM CST
Nautical Twilight 5:53 AM CST 6:43 PM CST
Astronomical Twilight 5:18 AM CST 7:17 PM CST
Moon 11:52 PM CST (2/20) 9:23 AM CST (2/20)
Length of Visible Light 11h 40m
Length of Day
10h 40m
Waning Gibbous, 70% of the Moon is Illuminated
Feb 20
Waning Gibbous
Feb 22
Last Quarter
Mar 1
New
Mar 8
First Quarter
Mar 16
Full

Hourly Weather History & Observations

Time (CST) Temp. Windchill Dew Point Humidity Pressure Visibility Wind Dir Wind Speed Gust Speed Precip Events Conditions
12:15 AM 34.5 °F 31.6 °F 28.4 °F 78% 29.78 in 10.0 mi SE 3.5 mph - N/A   Clear
12:35 AM 34.9 °F 29.0 °F 28.4 °F 77% 29.78 in 10.0 mi SSE 6.9 mph - N/A   Clear
12:55 AM 34.5 °F 30.4 °F 28.0 °F 77% 29.78 in 10.0 mi SE 4.6 mph - N/A   Scattered Clouds
1:15 AM 31.8 °F 27.3 °F 26.4 °F 80% 29.78 in 10.0 mi ESE 4.6 mph - N/A   Scattered Clouds
1:35 AM 30.9 °F 25.2 °F 25.7 °F 81% 29.77 in 10.0 mi ESE 5.8 mph - N/A   Scattered Clouds
1:55 AM 29.5 °F 24.5 °F 24.6 °F 82% 29.77 in 10.0 mi ESE 4.6 mph - N/A   Mostly Cloudy
2:15 AM 28.2 °F 22.0 °F 24.1 °F 84% 29.77 in 10.0 mi ESE 5.8 mph - N/A   Mostly Cloudy
2:35 AM 29.8 °F 23.0 °F 25.0 °F 82% 29.76 in 10.0 mi ESE 6.9 mph - N/A   Scattered Clouds
2:55 AM 30.7 °F 24.1 °F 25.5 °F 81% 29.75 in 10.0 mi ESE 6.9 mph - N/A   Clear
3:15 AM 30.7 °F 24.9 °F 25.3 °F 80% 29.74 in 10.0 mi ESE 5.8 mph - N/A   Clear
3:35 AM 30.9 °F 23.5 °F 25.0 °F 79% 29.72 in 10.0 mi ESE 8.1 mph - N/A   Clear
3:55 AM 30.4 °F 23.6 °F 24.1 °F 77% 29.71 in 10.0 mi ESE 6.9 mph - N/A   Clear
4:15 AM 30.2 °F 22.6 °F 23.5 °F 76% 29.71 in 10.0 mi ESE 8.1 mph - N/A   Clear
4:35 AM 30.2 °F 21.9 °F 23.0 °F 75% 29.70 in 10.0 mi ESE 9.2 mph - N/A   Clear
4:55 AM 30.2 °F 22.6 °F 22.6 °F 73% 29.70 in 10.0 mi ESE 8.1 mph - N/A   Clear
5:15 AM 29.7 °F 22.0 °F 21.9 °F 73% 29.69 in 10.0 mi ESE 8.1 mph - N/A   Clear
5:35 AM 29.7 °F 22.8 °F 22.1 °F 73% 29.69 in 10.0 mi ESE 6.9 mph - N/A   Mostly Cloudy
5:55 AM 30.9 °F 24.3 °F 22.1 °F 70% 29.68 in 10.0 mi ESE 6.9 mph - N/A   Overcast
6:15 AM 31.6 °F 24.4 °F 22.5 °F 69% 29.67 in 10.0 mi ESE 8.1 mph - N/A   Overcast
6:35 AM 31.8 °F 25.4 °F 22.8 °F 69% 29.67 in 10.0 mi ESE 6.9 mph - N/A   Overcast
6:55 AM 32.0 °F 26.4 °F 22.8 °F 69% 29.67 in 10.0 mi ESE 5.8 mph - N/A   Overcast
7:15 AM 32.0 °F 26.4 °F 23.0 °F 69% 29.67 in 10.0 mi ESE 5.8 mph - N/A   Overcast
7:35 AM 32.5 °F 26.2 °F 22.8 °F 67% 29.66 in 10.0 mi ESE 6.9 mph - N/A   Overcast
7:55 AM 32.9 °F 27.5 °F 22.5 °F 65% 29.66 in 10.0 mi ESE 5.8 mph - N/A   Overcast
8:15 AM 32.9 °F 28.5 °F 22.6 °F 66% 29.66 in 10.0 mi East 4.6 mph - N/A   Overcast
8:35 AM 32.9 °F 26.7 °F 22.6 °F 66% 29.65 in 10.0 mi ESE 6.9 mph - N/A   Overcast
8:55 AM 33.6 °F 29.4 °F 22.6 °F 64% 29.65 in 10.0 mi ESE 4.6 mph - N/A   Mostly Cloudy
9:15 AM 34.3 °F 30.2 °F 22.8 °F 63% 29.64 in 10.0 mi ESE 4.6 mph - N/A   Overcast
9:35 AM 34.7 °F 29.6 °F 23.7 °F 64% 29.64 in 10.0 mi ESE 5.8 mph - N/A   Overcast
9:55 AM 35.1 °F 30.1 °F 24.8 °F 66% 29.63 in 10.0 mi ESE 5.8 mph - N/A   Overcast
10:15 AM 35.1 °F 27.9 °F 24.8 °F 66% 29.64 in 10.0 mi ESE 9.2 mph - N/A   Light Drizzle
10:35 AM 34.2 °F 28.2 °F 27.5 °F 77% 29.63 in 7.0 mi ESE 6.9 mph - N/A   Light Drizzle
10:55 AM 34.5 °F 29.4 °F 27.5 °F 76% 29.62 in 10.0 mi East 5.8 mph - N/A   Overcast
11:15 AM 36.1 °F 29.9 °F 26.8 °F 69% 29.61 in 10.0 mi East 8.1 mph - N/A   Overcast
11:35 AM 36.3 °F 30.1 °F 28.6 °F 74% 29.60 in 10.0 mi East 8.1 mph - N/A   Overcast
11:55 AM 36.9 °F 30.7 °F 29.8 °F 76% 29.58 in 10.0 mi ESE 8.1 mph - N/A   Overcast
12:15 PM 37.0 °F 30.4 °F 31.1 °F 79% 29.56 in 10.0 mi ESE 9.2 mph - N/A   Overcast
12:35 PM 37.4 °F 28.9 °F 32.0 °F 81% 29.54 in 10.0 mi ESE 13.8 mph - N/A   Overcast
12:55 PM 37.6 °F 29.1 °F 32.0 °F 80% 29.52 in 10.0 mi ESE 13.8 mph 18.4 mph N/A   Overcast
1:15 PM 37.8 °F 29.8 °F 32.2 °F 80% 29.51 in 10.0 mi ESE 12.7 mph - N/A   Overcast
1:35 PM 37.9 °F 30.0 °F 32.5 °F 81% 29.48 in 10.0 mi ESE 12.7 mph 17.3 mph N/A   Overcast
1:55 PM 37.9 °F 30.5 °F 32.2 °F 80% 29.46 in 10.0 mi East 11.5 mph - N/A   Overcast
2:15 PM 38.8 °F 31.2 °F 31.8 °F 76% 29.42 in 10.0 mi East 12.7 mph 26.5 mph N/A   Overcast
2:35 PM 38.1 °F 30.2 °F 32.0 °F 79% 29.41 in 10.0 mi East 12.7 mph 24.2 mph N/A   Overcast
2:55 PM 37.4 °F 29.8 °F 32.0 °F 81% 29.39 in 10.0 mi East 11.5 mph 24.2 mph N/A   Overcast
3:15 PM 37.8 °F 28.6 °F 32.0 °F 80% 29.38 in 10.0 mi East 16.1 mph 23.0 mph N/A   Overcast
3:35 PM 37.4 °F 29.8 °F 32.0 °F 81% 29.38 in 10.0 mi East 11.5 mph 19.6 mph N/A   Overcast
3:55 PM 36.9 °F 29.1 °F 32.0 °F 83% 29.38 in 5.0 mi East 11.5 mph 16.1 mph N/A   Haze
4:15 PM 36.0 °F 29.0 °F 32.9 °F 89% 29.35 in 3.0 mi ENE 9.2 mph - N/A   Overcast
4:35 PM 35.8 °F 28.8 °F 33.1 °F 90% 29.33 in 5.0 mi NE 9.2 mph - N/A   Overcast
4:55 PM 35.2 °F 28.1 °F 32.5 °F 90% 29.31 in 2.5 mi ENE 9.2 mph 16.1 mph N/A Rain Light Rain
5:15 PM 34.7 °F 31.8 °F 32.4 °F 91% 29.33 in 1.5 mi East 3.5 mph - 0.03 in Snow Light Snow
5:35 PM 33.6 °F 27.5 °F 32.2 °F 94% 29.30 in 1.0 mi NNE 6.9 mph - 0.06 in Snow Light Snow
5:55 PM 33.4 °F 27.3 °F 32.4 °F 96% 29.29 in 1.2 mi NNE 6.9 mph - 0.14 in Snow Light Snow
6:15 PM 33.3 °F 27.1 °F 32.4 °F 96% 29.28 in 0.8 mi NNE 6.9 mph - 0.05 in Snow Snow
6:35 PM 33.4 °F 25.9 °F 32.7 °F 97% 29.23 in 2.0 mi NNE 9.2 mph - 0.09 in Snow Light Snow
6:55 PM 33.3 °F 25.1 °F 32.5 °F 97% 29.18 in 0.5 mi NNE 10.4 mph - 0.15 in Snow Snow
7:15 PM 33.4 °F 27.3 °F 32.9 °F 98% 29.18 in 1.2 mi NE 6.9 mph - 0.01 in Snow Light Snow
7:35 PM 33.4 °F 29.1 °F 32.9 °F 98% 29.18 in 1.8 mi NNW 4.6 mph - 0.03 in Snow Light Snow
7:55 PM 33.3 °F 27.1 °F 32.5 °F 97% 29.15 in 1.5 mi North 6.9 mph - 0.06 in Snow Snow
8:15 PM 33.3 °F 27.1 °F 32.5 °F 97% 29.15 in 1.8 mi North 6.9 mph - 0.01 in   Overcast
8:35 PM 33.3 °F 27.1 °F 32.5 °F 97% 29.14 in 1.5 mi NNW 6.9 mph - 0.02 in Snow Light Snow
8:55 PM 33.3 °F 26.4 °F 32.5 °F 97% 29.13 in 2.0 mi North 8.1 mph - 0.03 in Snow Light Snow
9:15 PM 33.3 °F 26.4 °F 32.5 °F 97% 29.11 in 1.8 mi North 8.1 mph - N/A Snow Light Snow
9:35 PM 33.3 °F 27.1 °F 32.5 °F 97% 29.10 in 1.5 mi North 6.9 mph - N/A Snow Light Snow
9:55 PM 33.1 °F 26.1 °F 32.4 °F 97% 29.08 in 1.2 mi North 8.1 mph - 0.01 in Snow Light Snow
10:15 PM 33.1 °F 25.5 °F 32.4 °F 97% 29.07 in 1.2 mi North 9.2 mph - N/A Snow Light Snow
10:35 PM 33.1 °F 25.5 °F 32.4 °F 97% 29.05 in 2.5 mi North 9.2 mph - N/A Snow Light Snow
10:55 PM 33.1 °F 26.1 °F 32.2 °F 96% 29.03 in 2.5 mi North 8.1 mph - N/A Snow Light Snow
11:15 PM 33.1 °F 26.9 °F 32.0 °F 96% 29.02 in 10.0 mi NNW 6.9 mph - N/A   Overcast
11:35 PM 32.9 °F 25.9 °F 32.0 °F 96% 29.00 in 10.0 mi North 8.1 mph - N/A   Overcast
11:55 PM 32.5 °F 25.5 °F 31.1 °F 94% 28.98 in 10.0 mi North 8.1 mph - N/A   Overcast